Location: Shady Grove
(34.7498°N, 89.0528°W)
Time: 00:52:42
(UTC+00:00)

Daily predictions for brighter satellites

Satellite Brightness Start Highest point End
(mag) Time Altitude Azimuth Time Altitude Azimuth Time Altitude Azimuth
Cosmos 1626 4.2 00:01:02 10° SW 00:04:16 29° W 00:07:33 10° NNW
Cosmos 1777 Rocket 4.0 00:02:28 10° S 00:07:41 77° ESE 00:12:58 10° NNE
Cosmos 1844 Rocket 3.3 00:02:42 10° SSE 00:07:47 35° ESE 00:12:24 12° NE
CZ-4B R/B 4.3 00:02:39 10° S 00:07:54 49° W 00:13:18 10° NNW
YAOGAN 1 3.4 00:05:39 10° SE 00:09:21 29° ENE 00:13:04 10° NNE
Cosmos 1892 Rocket 3.5 00:05:32 10° S 00:09:50 67° E 00:14:09 10° NNE
Cosmos 1939 Rocket 3.0 00:06:14 10° S 00:10:22 82° WSW 00:14:31 10° NNW
Abrixas rocket 2.2 00:09:29 10° NW 00:11:59 38° NNE 00:12:49 28° ENE
BREEZE-M DEB (TANK) 3.6 00:10:17 10° NW 00:13:18 81° SW 00:23:51 10° SE
IRS-1C Rocket 4.1 00:08:19 10° SSE 00:13:26 57° ENE 00:18:34 10° N
CZ-4 R/B 4.4 00:10:01 10° SSE 00:14:03 59° ENE 00:18:07 10° N
Cosmos 783 Rocket 4.4 00:09:34 10° NNW 00:14:48 72° ENE 00:20:02 10° SSE
Cosmos 1606 Rocket 3.5 00:11:21 10° N 00:15:45 83° E 00:20:09 10° S
CZ-4 R/B 1.8 00:13:08 10° SE 00:17:03 41° ENE 00:20:54 10° N
Cosmos 1603 3.8 00:18:00 10° NNW 00:23:45 85° WSW 00:29:28 10° SSE
COSMOS 2455 2.9 00:21:02 10° SSW 00:27:03 85° WNW 00:33:07 10° NNE
CZ-2C R/B 3.0 00:24:59 10° SSE 00:30:04 87° ENE 00:35:30 10° NNW
Cosmos 1689 Rocket 2.0 00:29:56 19° N 00:31:48 78° WNW 00:34:38 10° SSW
CSL-04 Rocket 4.2 00:27:45 10° SE 00:32:32 34° ENE 00:37:22 10° N
SAR-Lupe-4 3.7 00:30:31 10° N 00:34:05 73° WNW 00:37:38 10° SSW
SJ 16-02 1.4 00:30:41 10° S 00:34:57 53° ESE 00:36:59 28° NE
Cosmos 1315 Rocket 4.2 00:32:41 10° NNW 00:36:26 41° W 00:40:12 10° SSW
MOS 1 Rocket 3.9 00:33:41 10° N 00:37:52 50° WNW 00:41:58 10° SSW
Cosmos 2228 4.3 00:35:22 10° NNW 00:39:24 43° W 00:43:26 10° SSW
ISS -3.9 00:36:22 10° SW 00:39:42 90° SW 00:40:19 58° NE
Okean 1-7 Rocket 3.6 00:35:50 10° S 00:40:20 84° W 00:44:54 10° N
Cosmos 2058 Rocket 3.0 00:36:33 10° N 00:41:04 74° E 00:45:32 10° SSE
ATLAS 5 CENTAUR R/B 4.1 00:41:17 10° WNW 00:43:14 13° NW 00:45:16 10° NNW
IUS-9 SRM-1 4.2 00:42:34 10° SSW 00:43:40 12° SSE 00:44:01 12° SSE
Nadezhda 4 Rocket 3.9 00:39:33 10° S 00:45:51 87° E 00:52:07 10° N
Aureole 2 Rocket 2.2 00:43:56 10° SSW 00:46:49 68° WNW 00:47:01 65° NW
H-2A R/B 1.8 00:44:43 10° SSE 00:49:36 76° ENE 00:54:38 10° N
Cosmos 990 Rocket 4.5 00:46:37 10° SSE 00:51:10 38° ESE 00:51:10 38° ESE
Helios 1A Rocket 2.8 00:47:56 10° SSE 00:52:02 74° ENE 00:56:10 10° N
Meteor 2-10 Rocket 3.5 00:47:13 10° N 00:52:44 87° W 00:58:00 10° S
ATLAS 3B R/B 3.6 00:46:14 10° NW 00:53:04 52° WSW 01:00:07 10° S
DMSP B5D1-3 4.5 00:48:15 10° N 00:53:22 84° WNW 00:58:27 10° SSW
X-37B 1.2 00:54:24 10° WSW 00:57:06 54° WNW 00:57:06 54° WNW
Hubble Space Telescope 2.3 00:57:04 10° SW 01:00:26 24° SSE 01:00:30 24° SSE
SJ-11-01 4.3 00:59:24 10° S 01:04:06 81° W 01:08:48 10° NNW
Cosmos 1626 Rocket 3.4 01:00:26 10° S 01:04:46 88° W 01:05:44 54° N
Cosmos 1818 3.8 01:00:13 10° SW 01:05:34 68° WNW 01:08:06 32° NNE
OAO 1 4.4 01:00:03 10° W 01:05:35 89° N 01:06:36 61° E
Okean-O 3.3 01:02:16 10° S 01:06:36 55° W 01:10:58 10° NNW
Cosmos 1898 Rocket 4.1 01:05:53 10° S 01:09:43 42° SE 01:09:43 42° SE
Cosmos 2098 Rocket 4.3 01:06:09 10° SSE 01:12:24 52° E 01:13:17 49° ENE
ARGOS 3.0 01:10:25 10° SSE 01:15:46 87° WSW 01:21:09 10° NNW
DELTA 2 R/B (1) 3.8 01:10:22 10° WNW 01:15:52 65° SSW 01:17:02 51° SSE
Lacrosse 5 3.9 01:13:16 10° NNW 01:14:35 15° N 01:14:35 15° N
CSL-04 Debris 4.1 01:12:31 10° SSE 01:17:55 82° WSW 01:23:20 10° NNW
Cosmos 1844 4.0 01:15:04 10° SSW 01:20:37 65° WNW 01:22:59 35° N
Cosmos 2026 Rocket 3.7 01:17:32 10° S 01:23:35 80° E 01:25:03 54° NNE
CZ-2C R/B 3.0 01:29:07 36° N 01:31:24 67° WNW 01:36:57 10° SSW
USA 267 4.0 01:39:16 35° N 01:41:21 45° NW 01:47:29 10° WSW
Cosmos 1844 Rocket 4.4 01:46:53 10° WSW 01:51:40 28° WNW 01:54:07 21° NNW
SJ 16-02 4.3 02:12:13 10° W 02:13:50 12° WNW 02:14:03 12° WNW
CZ-3A R/B 4.4 09:29:29 50° SSE 09:29:29 50° SSE 09:38:10 10° ESE
FALCON 9 R/B 3.4 10:02:08 35° SE 10:02:08 35° SE 10:04:31 10° ESE
Atlas Centaur 2 4.4 10:06:29 23° S 10:08:55 27° SSE 10:15:41 10° E
Cosmos 2233 Rocket 4.4 10:10:36 10° S 10:17:50 56° NE 10:22:58 10° NNE
Chandra Rocket (1) 4.0 10:26:45 26° SE 10:26:45 26° SE 10:28:35 10° ESE
OAO 2 Rocket 4.4 10:30:10 40° ESE 10:30:10 40° ESE 10:33:43 10° E
OAO 3 Rocket 4.2 10:36:35 40° SE 10:36:35 40° SE 10:39:41 10° ESE
CZ-2C R/B 4.0 10:40:05 12° SSE 10:40:52 13° SSE 10:42:38 10° ESE
SJ 16-02 3.0 10:43:44 24° NNE 10:45:20 31° ENE 10:49:15 10° SE
ADEOS 4.3 10:42:51 10° NNE 10:54:20 - SSW 10:46:11 41° N
Cosmos 1844 Rocket 2.7 10:47:01 57° N 10:48:08 75° ENE 10:53:41 10° SSE
CZ-3 Stage 3 2.9 10:49:32 28° SSE 10:49:32 28° SSE 10:51:12 10° ESE
ATLAS 3B CENTAUR R/B 4.3 10:45:58 33° SW 10:49:38 42° SSW 11:05:52 10° SE
Cosmos 2322 3.6 10:50:35 69° NNW 10:50:35 69° NNW 10:55:48 10° NNE
Cosmos 2333 Rocket 2.0 10:52:10 65° SW 10:53:03 83° WNW 10:58:44 10° NNE
Cosmos 2237 Rocket 4.4 10:52:17 10° SSE 10:56:50 26° ESE 11:01:25 10° NE
Meteor 2-5 Rocket 3.6 11:00:23 43° NNW 11:02:17 75° W 11:07:57 10° S
Cosmos 2219 Rocket 2.0 11:03:26 33° SW 11:05:57 72° WNW 11:11:33 10° NNE
Meteor 1-22 Rocket 4.2 11:01:47 10° SSW 11:07:16 58° W 11:13:01 10° N
BREEZE M DEB (TANK) 4.4 11:09:01 10° NE 11:09:01 10° NE 11:09:07 10° NE
COSMOS 2428 2.6 11:06:36 10° SSW 11:12:17 77° WNW 11:18:00 10° NNE
IRIDIUM 106 4.2 11:07:20 10° S 11:12:33 86° W 11:17:47 10° N
H-II Stage 2 4.1 11:15:39 10° S 11:15:53 10° S 11:16:08 10° S
Cosmos 1455 Rocket 3.3 11:14:46 10° S 11:19:07 70° E 11:23:27 10° NNE
SKYMED 2 3.5 11:14:47 10° SSE 11:19:07 88° ENE 11:22:04 20° NNW
Tsikada Rocket 4.4 11:21:38 36° W 11:21:38 36° W 11:26:57 10° SSW
Cosmos 1758 3.1 11:20:34 10° S 11:24:34 77° W 11:28:37 10° N
CZ-4B R/B 2.4 11:21:43 10° N 11:25:17 70° WNW 11:28:57 10° SSW
CZ-4B R/B 2.3 11:24:53 10° S 11:27:07 35° SSW 11:27:07 35° SSW
Cosmos 1980 4.4 11:23:14 10° S 11:28:43 55° ESE 11:34:14 10° NNE
CZ-3A R/B 4.2 11:24:11 20° WSW 11:31:50 39° SSW 11:38:42 10° SE
Cosmos 2360 Rocket 4.2 11:37:01 11° NNW 11:37:01 11° NNW 11:37:21 10° NNW
GPS 2-04 Rocket1 2.7 11:34:18 42° W 11:35:40 87° NNE 11:39:51 10° E
YAOGAN 6 2.8 11:35:50 10° NNE 11:39:31 72° E 11:43:11 10° S
Cosmos 1763 Rocket 3.5 11:35:47 10° SSW 11:40:47 56° WNW 11:45:54 10° N
Cosmos 1898 Rocket 4.0 11:37:17 10° N 11:42:25 61° ENE 11:47:31 10° SSE
GEOS 3 Rocket 3.6 11:37:44 10° SSE 11:43:03 77° WSW 11:47:37 15° NW
ERS-2 2.1 11:39:34 10° S 11:43:10 59° WSW 11:45:39 19° NNW
MOS 1 Rocket 3.4 11:37:59 10° S 11:43:12 77° WSW 11:48:10 10° NNW
deb Chang Zheng 4 4.1 11:40:16 10° N 11:44:07 34° WNW 11:47:56 10° SW
Cosmos 841 Rocket 3.7 11:39:07 10° S 11:44:12 71° ESE 11:49:20 10° NNE
Meteor PRIRODA 4.0 11:41:23 10° N 11:44:47 39° WNW 11:48:10 10° SW
Nadezhda 4 Rocket 4.5 11:38:53 10° N 11:44:57 61° E 11:50:57 10° SSE
Meteor 1-24 Rocket 4.1 11:41:26 15° NNW 11:45:25 37° W 11:50:33 10° SSW
USA 276 2.9 11:51:48 21° NNW 11:53:32 45° NE 11:56:33 10° ESE
